Ingeniero Ambrosio Taravella Airport
SACO : now visible

Airfield :











YOU CAN JOIN US ON...

 
LOGIN :

Register | Disclaimer

   EN    FR    IT 

 









Legend :    VFR   Marginal VFR   IFR   Intensive IFR   Very Intensive IFR
Visi :
Ceiling :
>= 8 km
>= 3000ft
5 to 8 km
1000 to 3000 ft
1500m to 5 km
500 to 1000 ft
800 to 1500m
200 to 500 ft
< 800m
< 200 ft
Symbols :   Thunderstorms  Fog  Heavy snow  Heavy precipitations  Wind > 20 kt






- Airport Elevation : 1604 ft
- IATA code : COR


SACO - Ingeniero Ambrosio Taravella

CURRENT METAR :
  • 240300Z 23003KT 2000 BR OVC013 18/18 Q1015 NOSIG

EXPIRED METARs :
  • 240200Z 24004KT 2000 BR OVC007 18/18 Q1015 NOSIG
  • 240100Z 24005KT 2000 -DZ BR OVC017 18/18 Q1015 NOSIG

TAF TAF SACO
Valid from the 24 at 00:00 until the 25 at 00:00 UTC


232300Z 2400/2424 20005KT 2000 DZ BR OVC010 TX26/2418Z TN15/2408Z
BECMG 2401/2403 0800 DZ FG OVC005
TEMPO 2406/2408 0300 DZ FG OVC002
BECMG 2410/2412 3000 BR BKN005 OVC015
BECMG 2414/2416 03015KT 9999 BKN015 BKN100
SACF FIR / South America



MET'MAP, your aeronautical weather chart ! - Copyright ORBIFLY December 2007 - Disclaimer

ORBIFLY MET'MAP TEAM :

Programming & Development : Alexandra Zaïnal
Concept & original design : Baudouin d'Aumeries
Assistance for programming : Marc-Olivier Méhu
Technical & hardware support : Manuel Goepfert

Contact : metmap@orbifly.com




SOURCES & CREDITS :

   NOAA       Earth
Advisory